Find Kosmos-2556

NORAD ID: 52713 Int'l Des: 2022-054 Owner: VVKOV Country: RU operational
LEOCIRCULARRETROGRADESSO

Current View

Loading 3D Globe...

About Kosmos-2556

Description loading...

Upcoming Passes

Passes for default location (London). Set your location on the main map for personalized predictions.

Altitude History

Loading altitude history...

Two-Line Element Set

1 52713U 22054A 26149.60438926 .00003233 00000-0 12860-3 0 9992
2 52713 97.6278 98.9151 0002075 106.7310 253.4156 15.26033302223901
Epoch: May 29, 2026 • Age: 17 hours

Current Status

Altitude 496.4 km
Velocity 7.61 km/s
Sub-Earth Point -20.61°S, 98.79°E
Launch Date May 19, 2022
Age 4 years
Type other

Technical Details

Classification Payload
Mass 3700.00 kg
Dry Mass 3500.00 kg
Total Mass 3700.00 kg
Length 6.00 m
Diameter 2.70 m
Span 10.00 m
Shape Cyl + 2 Pan
Manufacturer ARSLO
Bus Type Bars
Phase Status In Orbit
Owner/State VVKOV/RU

Most Searched